DW9497 Weather Reports


time (UTC)temp
F
wind
direction
speed
knots
gust
knots
rain 1hr
in
rain 24hr
in
rain mn
in
humidity
%
barometer
mb
20260506031551 44 86 0.0 0.9 0.00 0.00 0.00 80 1015.2
20260506030051 44 81 0.0 0.9 0.00 0.00 0.00 81 1015.2
20260506024549 44 350 0.0 0.9 0.00 0.00 0.00 81 1015.1
20260506023106 44 351 0.0 0.0 0.00 0.00 0.00 81 1015.1
20260506021548 44 352 0.0 0.9 0.00 0.00 0.00 80 1015.0
20260506020047 44 348 0.0 0.9 0.00 0.00 0.00 80 1015.0
20260506014544 45 351 0.0 0.9 0.00 0.00 0.00 81 1015.0
20260506013043 45 350 0.0 0.9 0.00 0.00 0.00 81 1015.1
20260506011540 45 351 0.0 0.0 0.00 0.00 0.00 81 1015.3
20260506010048 45 348 0.0 0.0 0.00 0.00 0.00 81 1015.3
20260506004559 45 349 0.0 0.9 0.00 0.00 0.00 80 1015.3
20260506003046 45 30 0.0 0.9 0.00 0.00 0.00 80 1015.4
20260506001539 46 29 0.0 0.0 0.00 0.00 0.00 80 1015.4
20260506000034 46 28 0.0 0.9 0.00 0.00 0.00 79 1015.3
20260505234554 46 30 0.0 0.9 0.00 0.00 0.00 79 1015.2
20260505233036 46 26 0.0 0.9 0.00 0.00 0.00 78 1015.2
20260505231533 46 132 0.0 0.9 0.00 0.00 0.00 78 1015.3
20260505230036 46 46 0.0 1.7 0.00 0.00 0.00 77 1015.2
20260505224527 47 323 0.0 1.7 0.00 0.00 0.00 77 1015.2
20260505223026 47 226 0.0 0.9 0.00 0.00 0.00 77 1015.2
20260505221526 47 62 0.0 0.9 0.00 0.00 0.00 76 1015.3
20260505220038 48 333 0.0 1.7 0.00 0.00 0.00 77 1015.2
20260505214532 48 344 0.0 2.6 0.00 0.00 0.00 78 1015.2
20260505213026 48 335 0.0 0.9 0.00 0.00 0.00 78 1015.1
20260505211525 49 32 0.0 1.7 0.00 0.00 0.00 77 1015.0
20260505210023 49 14 0.0 0.0 0.00 0.00 0.00 77 1014.9
20260505204522 49 38 0.0 2.6 0.00 0.00 0.00 76 1014.9
20260505203022 50 354 0.0 0.9 0.00 0.00 0.00 75 1014.8
20260505201524 50 1 0.0 0.9 0.00 0.00 0.00 75 1014.8
20260505200022 50 316 0.0 1.7 0.00 0.00 0.00 75 1014.6
20260505194531 50 19 0.9 2.6 0.00 0.00 0.00 73 1014.5
20260505193033 50 292 0.9 1.7 0.00 0.00 0.00 73 1014.4
20260505191518 50 294 0.9 2.6 0.00 0.00 0.00 73 1014.3
20260505190017 50 309 0.9 1.7 0.00 0.00 0.00 73 1014.2
20260505184517 51 21 1.7 4.3 0.00 0.00 0.00 72 1014.3
20260505183018 51 23 0.9 3.5 0.00 0.00 0.00 73 1014.3
20260505181517 51 17 0.9 3.5 0.00 0.00 0.00 71 1014.2
20260505180015 52 332 1.7 4.3 0.00 0.00 0.00 69 1014.2
20260505174526 53 331 0.9 4.3 0.00 0.00 0.00 71 1014.2
20260505173014 53 319 1.7 4.3 0.00 0.00 0.00 70 1014.1
20260505171515 54 11 0.9 4.3 0.00 0.00 0.00 71 1014.1
20260505170023 53 297 1.7 4.3 0.00 0.00 0.00 70 1014.3
20260505164516 54 15 1.7 3.5 0.00 0.00 0.00 69 1014.3
20260505163009 54 322 0.9 4.3 0.00 0.00 0.00 69 1014.2
20260505161510 54 313 0.9 3.5 0.00 0.00 0.00 66 1014.2
20260505153008 54 303 0.9 3.5 0.00 0.00 0.00 69 1014.2
20260505151506 53 304 0.9 2.6 0.00 0.00 0.00 70 1014.2
20260505124600 54 335 0.9 5.2 0.00 0.00 0.00 68 1014.3
20260505123115 55 6 0.9 5.2 0.00 0.00 0.00 68 1014.4
20260505121559 55 25 1.7 5.2 0.00 0.00 0.00 66 1014.3
20260505120057 55 16 1.7 4.3 0.00 0.00 0.00 69 1014.4
20260505114611 53 12 2.6 4.3 0.00 0.00 0.00 73 1014.5
20260505113052 53 16 0.9 4.3 0.00 0.00 0.00 75 1014.7
20260505111603 51 22 1.7 4.3 0.00 0.00 0.00 78 1014.8
20260505101545 52 328 1.7 4.3 0.00 0.00 0.00 74 1014.8
20260505100041 52 302 0.9 3.5 0.00 0.00 0.00 77 1014.7
20260505094542 51 313 0.9 3.5 0.00 0.00 0.00 79 1014.8
20260505093039 51 20 0.9 5.2 0.00 0.00 0.00 80 1014.8
20260505091537 51 331 0.9 2.6 0.00 0.00 0.00 82 1014.8
20260505090044 50 17 0.9 2.6 0.00 0.00 0.00 83 1014.8
20260505084535 51 333 0.0 1.7 0.00 0.00 0.00 86 1014.8
20260505083040 50 12 0.9 1.7 0.00 0.00 0.00 86 1014.9
20260505081533 50 295 0.0 1.7 0.00 0.00 0.00 86 1015.0
20260505080035 49 15 0.9 2.6 0.00 0.00 0.00 86 1015.0
20260505074524 49 6 0.9 4.3 0.00 0.00 0.00 89 1014.9
20260505073022 49 6 0.9 3.5 0.00 0.00 0.00 92 1014.9
20260505071520 48 15 0.9 2.6 0.00 0.00 0.00 93 1014.8
20260505070017 47 349 0.0 0.9 0.00 0.00 0.00 94 1014.8
20260505064513 46 345 0.0 0.9 0.00 0.00 0.00 94 1015.0
20260505063012 45 346 0.0 0.9 0.00 0.00 0.00 94 1015.1
20260505061520 44 349 0.0 0.9 0.00 0.00 0.00 94 1015.1
20260505060013 43 348 0.0 0.0 0.00 0.00 0.00 95 1015.1
20260505054510 41 349 0.0 0.0 0.00 0.00 0.00 94 1015.1
20260505053010 41 349 0.0 0.0 0.00 0.00 0.00 94 1015.1
20260505051507 40 351 0.0 0.0 0.00 0.00 0.00 93 1014.9
20260505041615 42 351 0.0 0.0 0.00 0.00 0.00 93 1014.7
20260505040100 43 349 0.0 0.0 0.00 0.00 0.00 93 1014.6
20260505034604 43 351 0.0 0.9 0.00 0.00 0.00 93 1014.6
20260505033058 43 355 0.0 0.9 0.00 0.00 0.00 93 1014.7